Home   Weather   Macon   Past weeks
Flag for USA

Past Weather in Macon, Georgia, USA — Yesterday and Last 2 Weeks

Now
78 °F

Scattered clouds.


Feels Like: 80 °F
Forecast: 91 / 70 °F
Wind: 8 mph from South

Location: Middle Georgia Regional Airport

Current Time: May 23, 2019 at 9:31:56 am

Latest Report: May 23, 2019 at 8:53 am


Visibility: 10 mi

Pressure: 30.24 "Hg

Humidity: 74%

Dew Point: 69 °F

Location of MaconLocation

Past Weather in Macon — Graph

°F

Macon Temperature Yesterday

Maximum temperature yesterday: 95 °F (at 3:53 pm)
Minimum temperature yesterday: 68 °F (at 6:53 am)
Average temperature yesterday: 83 °F

High & Low Weather Summary for the Past Weeks

 TemperatureHumidityPressure
High95 °F (May 22, 3:53 pm)97% (May 8, 7:07 am)30.23 "Hg (May 8, 7:07 am)
Low48 °F (May 15, 6:53 am)29% (May 14, 5:53 pm)29.74 "Hg (May 12, 7:53 pm)
Average74 °F70%29.97 "Hg
* Reported May 8 7:07 am — May 23 7:53 am, Macon. Weather by CustomWeather, © 2019

Note: Actual official high and low records may vary slightly from our data, if they occured in-between our weather recording intervals... More about our weather records

Advertising

Macon Weather History for the Previous 24 Hours

Scroll right to see more
 ConditionsComfort  
Time TempWeatherWind HumidityBarometerVisibility
7:53 am
Thu, May 23
75 °FPassing clouds.7 mph82%30.22 "Hg10 mi
7:00 am72 °FScattered clouds.5 mph87%30.23 "Hg10 mi
5:53 am73 °FClear.5 mph84%30.18 "Hg10 mi
4:53 am75 °FPartly cloudy.8 mph76%30.17 "Hg10 mi
3:53 am76 °FPassing clouds.10 mph74%30.16 "Hg10 mi
2:53 am76 °FClear.10 mph67%30.15 "Hg10 mi
1:53 am78 °FPassing clouds.13 mph58%30.16 "Hg10 mi
12:53 am79 °FPassing clouds.8 mph56%30.15 "Hg10 mi
11:53 pm
Wed, May 22
81 °FOvercast.9 mph54%30.14 "Hg10 mi
10:53 pm82 °FOvercast.7 mph60%30.13 "Hg10 mi
9:53 pm81 °FPassing clouds.3 mph69%30.10 "Hg10 mi
8:53 pm83 °FPassing clouds.No wind61%30.08 "Hg10 mi
7:53 pm88 °FSunny.7 mph46%30.06 "Hg10 mi
6:53 pm93 °FSunny.5 mph33%30.06 "Hg10 mi
5:53 pm93 °FPassing clouds.6 mph33%30.06 "Hg10 mi
4:53 pm95 °FSunny.7 mph31%30.05 "Hg10 mi
3:53 pm95 °FScattered clouds.3 mph30%30.06 "Hg10 mi
2:53 pm94 °FPartly sunny.7 mph30%30.07 "Hg10 mi
1:53 pm91 °FBroken clouds.No wind36%30.08 "Hg10 mi
12:53 pm92 °FPartly sunny.8 mph33%30.08 "Hg10 mi
11:53 am91 °FSunny.3 mph37%30.07 "Hg10 mi
10:53 am89 °FSunny.3 mph39%30.07 "Hg10 mi
9:53 am84 °FSunny.No wind49%30.06 "Hg10 mi
Weather by CustomWeather, © 2019

See weather overview